Flag for France Weather past 2 weeks in Villeurbanne, France

Now
59 °F

Mostly cloudy.


Feels Like: 59 °F
Forecast: 51 / 64 °F
Wind: 5 mph from North

Location: Lyon / Bron

Current Time: Oct 25, 2014 at 9:55:26 PM

Latest Report: Oct 25, 2014 at 9:30 PM


Visibility: N/A

Pressure: 30.18 "Hg

Humidity: 72%

Dew point: 50 °F

Location of VilleurbanneLocation

Historic Weather in Villeurbanne — Graph

°F

Villeurbanne temperature yesterday

Maximum temperature yesterday: 59 °F (at 4:30 PM)
Minimum temperature yesterday: 41 °F (at 7:00 AM)
Average temperature yesterday: 50 °F

Past Weeks' High & Low Weather Summary

 TemperatureHumidityPressure
High79 °F (Oct 18, 3:30 PM)100% (Oct 12, 2:30 AM)30.36 "Hg (Oct 12, 2:30 AM)
Low41 °F (Oct 23, 3:30 AM)38% (Oct 22, 3:00 PM)29.71 "Hg (Oct 12, 5:30 PM)
Average60 °F77%30.03 "Hg
* Reported Oct 10 8:00 PM — Oct 25 8:30 PM, Villeurbanne, Weather by CustomWeather, © 2014

Note: Actual official high and low records may vary slightly from our data, if they occured in-between our weather recording intervals... More about our weather records

Advertising

Villeurbanne weather history for previous 24 hours

 ConditionsComfort  
Time TempWeatherWind HumidityBarometerVisibility
8:30 PM
Oct 25
61 °FClear.3 mph68%30.18 "HgN/A
8:00 PM61 °FClear.5 mph68%30.18 "HgN/A
7:30 PM61 °FClear.5 mph68%30.15 "HgN/A
7:00 PM63 °FClear.3 mph64%30.15 "HgN/A
6:30 PM63 °FClear.5 mph64%30.15 "HgN/A
6:00 PM64 °FClear.2 mph56%30.12 "HgN/A
5:30 PM64 °FClear.3 mph56%30.12 "HgN/A
5:00 PM64 °FClear.2 mph56%30.12 "HgN/A
4:30 PM64 °FClear.1 mph56%30.12 "HgN/A
4:00 PM64 °FClear.2 mph56%30.12 "HgN/A
3:30 PM66 °FClear.No wind49%30.12 "HgN/A
3:00 PM66 °FClear.3 mph52%30.12 "HgN/A
2:30 PM64 °FClear.3 mph56%30.12 "HgN/A
2:00 PM63 °FClear.3 mph59%30.12 "HgN/A
1:30 PM63 °FClear.2 mph56%30.15 "HgN/A
1:00 PM64 °FClear.1 mph52%30.15 "HgN/A
12:30 PM61 °FClear.1 mph59%30.15 "HgN/A
12:00 PM61 °FClear.3 mph59%30.15 "HgN/A
11:30 AM59 °FClear.1 mph63%30.15 "HgN/A
11:00 AM57 °FClear.No wind63%30.15 "HgN/A
10:30 AM55 °FClear.2 mph67%30.15 "HgN/A
10:00 AM52 °FClear.No wind77%30.15 "HgN/A
9:30 AM50 °FClear.No wind82%30.15 "HgN/A
9:00 AM48 °FClear.2 mph87%30.12 "HgN/A
8:30 AM46 °FClear.No wind87%30.12 "Hg6 mi
8:00 AM46 °FClear.No wind93%30.12 "Hg5 mi
7:30 AM48 °FClear.2 mph87%30.09 "HgN/A
7:00 AM50 °FClear.No wind82%30.09 "HgN/A
6:30 AM50 °FClear.No wind82%30.09 "HgN/A
6:00 AM50 °FClear.1 mph82%30.09 "HgN/A
5:30 AM50 °FClear.1 mph82%30.09 "HgN/A
5:00 AM50 °FClear.2 mph82%30.09 "HgN/A
4:30 AM50 °FClear.2 mph82%30.09 "HgN/A
4:00 AM50 °FClear.No wind82%30.09 "HgN/A
3:30 AM50 °FClear.No wind82%30.09 "HgN/A
3:00 AM48 °FClear.No wind87%30.09 "HgN/A
2:30 AM48 °FClear.2 mph87%30.09 "HgN/A
2:00 AM48 °FClear.1 mph87%30.09 "HgN/A
1:30 AM48 °FClear.No wind82%30.09 "HgN/A
1:00 AM48 °FClear.No wind87%30.09 "HgN/A
12:30 AM50 °FClear.2 mph76%30.09 "HgN/A
12:00 AM50 °FClear.1 mph76%30.09 "HgN/A
11:30 PM
Oct 24
52 °FClear.No wind72%30.09 "HgN/A
11:00 PM52 °FClear.No wind72%30.12 "HgN/A
10:30 PM52 °FClear.2 mph72%30.12 "HgN/A
10:00 PM52 °FClear.No wind72%30.12 "HgN/A
9:30 PM52 °FClear.3 mph72%30.12 "HgN/A
9:00 PM52 °FClear.No wind67%30.12 "HgN/A
Weather by CustomWeather, © 2014

See weather overviewHow to use our weather pages